TimePDT,TemperatureF,Dew PointF,Humidity,Sea Level PressureIn,VisibilityMPH,Wind Direction,Wind SpeedMPH,Gust SpeedMPH,PrecipitationIn,Events,Conditions,WindDirDegrees,DateUTC
12:53 AM,37.9,37.0,97,30.48,10.0,East,4.6,-,N/A,,Clear,100,2011-11-01 07:53:00
1:53 AM,36.0,35.1,97,30.50,10.0,Calm,Calm,-,N/A,,Clear,0,2011-11-01 08:53:00
2:53 AM,35.1,34.0,96,30.50,10.0,East,3.5,-,N/A,,Clear,80,2011-11-01 09:53:00
3:53 AM,35.1,34.0,96,30.51,10.0,East,4.6,-,N/A,,Clear,90,2011-11-01 10:53:00
4:53 AM,33.1,32.0,96,30.51,7.0,Calm,Calm,-,N/A,,Clear,0,2011-11-01 11:53:00
5:16 AM,32.0,30.2,93,30.50,1.8,Calm,Calm,-,N/A,,Clear,0,2011-11-01 12:16:00
5:24 AM,32.0,30.2,93,30.50,0.8,Calm,Calm,-,N/A,,Clear,0,2011-11-01 12:24:00
5:31 AM,30.2,30.2,100,30.51,1.5,Calm,Calm,-,N/A,,Clear,0,2011-11-01 12:31:00
5:34 AM,30.2,30.2,100,30.51,3.0,Calm,Calm,-,N/A,,Clear,0,2011-11-01 12:34:00
5:53 AM,32.0,30.9,96,30.51,6.0,Calm,Calm,-,N/A,,Clear,0,2011-11-01 12:53:00
5:59 AM,30.2,30.2,100,30.50,1.8,Calm,Calm,-,N/A,,Clear,0,2011-11-01 12:59:00
6:10 AM,33.8,32.0,93,30.50,3.0,Calm,Calm,-,N/A,,Clear,0,2011-11-01 13:10:00
6:53 AM,30.0,28.9,96,30.51,6.0,Calm,Calm,-,N/A,,Clear,0,2011-11-01 13:53:00
7:03 AM,30.2,30.2,100,30.51,1.8,Calm,Calm,-,N/A,,Clear,0,2011-11-01 14:03:00
7:11 AM,30.2,30.2,100,30.51,3.0,Calm,Calm,-,N/A,,Clear,0,2011-11-01 14:11:00
7:53 AM,30.9,30.9,100,30.53,8.0,Calm,Calm,-,N/A,,Clear,0,2011-11-01 14:53:00
8:53 AM,34.0,33.1,96,30.52,9.0,East,10.4,-,N/A,,Clear,90,2011-11-01 15:53:00
9:53 AM,39.0,36.0,89,30.53,10.0,East,8.1,-,N/A,,Clear,80,2011-11-01 16:53:00
10:53 AM,44.1,39.0,82,30.56,10.0,Calm,Calm,-,N/A,,Clear,0,2011-11-01 17:53:00
11:53 AM,46.0,41.0,83,30.55,10.0,East,3.5,-,N/A,,Clear,100,2011-11-01 18:53:00
12:53 PM,50.0,42.1,74,30.54,10.0,Variable,5.8,-,N/A,,Scattered Clouds,0,2011-11-01 19:53:00
1:53 PM,50.0,41.0,71,30.52,10.0,South,9.2,-,N/A,,Partly Cloudy,190,2011-11-01 20:53:00
2:53 PM,50.0,41.0,71,30.51,10.0,South,4.6,-,N/A,,Clear,190,2011-11-01 21:53:00
3:53 PM,48.9,39.9,71,30.50,10.0,Calm,Calm,-,N/A,,Clear,0,2011-11-01 22:53:00
4:53 PM,48.0,41.0,77,30.47,10.0,Calm,Calm,-,N/A,,Clear,0,2011-11-01 23:53:00
5:53 PM,45.0,41.0,86,30.45,10.0,Calm,Calm,-,N/A,,Clear,0,2011-11-02 00:53:00
6:53 PM,43.0,39.9,89,30.44,10.0,Calm,Calm,-,N/A,,Clear,0,2011-11-02 01:53:00
7:53 PM,42.1,41.0,96,30.41,10.0,East,4.6,-,N/A,,Clear,90,2011-11-02 02:53:00
8:53 PM,41.0,39.9,96,30.38,10.0,ENE,3.5,-,N/A,,Clear,70,2011-11-02 03:53:00
9:53 PM,39.0,37.9,96,30.36,10.0,East,5.8,-,N/A,,Clear,80,2011-11-02 04:53:00
10:53 PM,39.0,37.9,96,30.33,10.0,East,5.8,-,N/A,,Clear,90,2011-11-02 05:53:00
11:53 PM,37.9,37.0,97,30.30,10.0,ENE,5.8,-,N/A,,Clear,60,2011-11-02 06:53:00